This is the latest recevied weather packets stored in our database for station/object N1MCJ. If no packets are shown the sender has not sent any weather packets the latest 1 day(s).
| Time | Temp. | Humidity | Pressure | Rain* | Wind** | Luminosity | Snow |
|---|---|---|---|---|---|---|---|
| 1778024719 | 18.33° C | 64% | 1000.4 hPa | 0 mm | 0.89 m/s, 105° | 0 W/m² | - |
| 1778023817 | 18.33° C | 63% | 1000.5 hPa | 0 mm | 1.34 m/s, 245° | 6 W/m² | - |
| 1778022914 | 18.89° C | 63% | 1000.2 hPa | 0 mm | 2.24 m/s, 176° | 12 W/m² | - |
| 1778022012 | 20° C | 62% | 999.9 hPa | 0 mm | 1.79 m/s, 146° | 26 W/m² | - |
| 1778021108 | 20.56° C | 61% | 999.9 hPa | 0 mm | 1.34 m/s, 148° | 35 W/m² | - |
| 1778020216 | 20.56° C | 59% | 1000.2 hPa | 0 mm | 1.34 m/s, 18° | 47 W/m² | - |
| 1778019299 | 21.11° C | 59% | 1000.3 hPa | 0 mm | 0.89 m/s, 250° | 59 W/m² | - |
| 1778018396 | 21.11° C | 60% | 999.9 hPa | 0 mm | 0.45 m/s, 135° | 162 W/m² | - |
| 1778017495 | 20.56° C | 60% | 1000 hPa | 0 mm | 0.89 m/s, 311° | 78 W/m² | - |
| 1778016592 | 22.22° C | 59% | 999.9 hPa | 0 mm | 0.89 m/s, 200° | 248 W/m² | - |
| 1778015689 | 22.22° C | 57% | 999.8 hPa | 0 mm | 2.68 m/s, 209° | 233 W/m² | - |
| 1778014784 | 21.67° C | 58% | 999.8 hPa | 0 mm | 0 m/s | 330 W/m² | - |
| 1778013883 | 21.67° C | 59% | 999.7 hPa | 0 mm | 1.34 m/s, 169° | 373 W/m² | - |
| 1778012978 | 22.22° C | 56% | 999.9 hPa | 0 mm | 1.34 m/s, 271° | 409 W/m² | - |
| 1778012074 | 22.78° C | 57% | 999.8 hPa | 0 mm | 0.89 m/s, 52° | 519 W/m² | - |
| 1778011170 | 22.22° C | 57% | 1000.1 hPa | 0 mm | 1.34 m/s, 73° | 408 W/m² | - |
| 1778010268 | 22.78° C | 56% | 1000.3 hPa | 0 mm | 1.79 m/s, 258° | 585 W/m² | - |
| 1778009364 | 22.22° C | 59% | 1000.2 hPa | 0 mm | 2.24 m/s, 190° | 144 W/m² | - |
| 1778008464 | 22.22° C | 58% | 1000.7 hPa | 0 mm | 0.45 m/s, 68° | 208 W/m² | - |
| 1778007562 | 23.33° C | 57% | 1000.8 hPa | 0 mm | 0.89 m/s, 189° | 346 W/m² | - |
| 1778006659 | 22.78° C | 58% | 1001 hPa | 0 mm | 1.79 m/s, 19° | 681 W/m² | - |
| 1778005755 | 22.78° C | 58% | 1000.9 hPa | 0 mm | 1.34 m/s, 140° | 107 W/m² | - |
| 1778004852 | 22.78° C | 57% | 1001.1 hPa | 0 mm | 1.34 m/s, 214° | 194 W/m² | - |
| 1778003947 | 23.33° C | 57% | 1000.9 hPa | 0 mm | 1.34 m/s, 181° | 174 W/m² | - |
| 1778003044 | 22.78° C | 55% | 1001.2 hPa | 0 mm | 1.34 m/s, 118° | 303 W/m² | - |
* Rain latest hour (hover to see other rain measurements)
** Current wind speed in m/s (hover to see current wind gust speed)